Temperature
18 18 18 18 18 18 18 18 18 18 18 18 18 18 18 18 18 18 18 18 17 17 17 17 17 17 17 17 17 17 17 17 17 17 17 17 17 17 17 17 16 16 16
18 18 18 18 18 18 18 18 18 18 18 18 18 18 18 18 18 18 18 18 18 17 17 17 17 17 17 17 17 17 17 17 17 17 17 17 17 17 17 16 16 16 16
18 18 18 18 18 18 18 18 18 18 18 18 18 18 18 18 18 18 18 17 17 17 17 17 17 17 17 17 17 17 17 17 17 17 17 17 17 17 17 16 16 16 16
18 18 18 18 18 18 18 18 18 18 18 18 18 18 18 18 18 18 18 17 17 17 17 17 17 17 17 17 17 17 17 17 17 17 17 17 17 16 16 16 16 16 16
18 18 18 18 18 18 18 18 18 18 18 18 18 18 18 18 18 17 17 17 17 17 17 17 17 17 17 17 17 17 17 17 17 17 17 17 17 16 16 16 16 16 16
18 18 18 18 18 18 18 18 18 18 18 18 18 18 18 18 17 17 17 17 17 17 17 17 17 17 17 17 17 17 17 17 17 17 16 17 17 17 16 16 16 16 16
18 18 18 18 18 18 18 18 18 18 18 17 17 17 17 17 17 17 17 17 17 17 17 17 17 17 17 17 17 17 17 17 17 17 17 17 17 17 16 16 16 16 16
18 18 18 18 18 18 18 17 17 17 17 17 17 17 17 17 17 17 17 17 17 17 17 17 17 17 17 17 17 17 17 17 17 17 17 17 17 16 16 16 16 16 16
17 17 17 18 17 17 17 17 17 17 17 17 17 17 17 17 17 17 17 17 17 17 17 17 17 17 17 17 17 17 17 17 17 17 17 17 17 16 16 16 16 16 16
17 17 17 17 17 17 17 17 17 17 17 17 17 17 16 16 16 17 17 17 17 17 17 17 17 17 17 17 17 17 17 17 16 16 16 16 16 16 16 16 16 16 16
17 17 17 17 17 17 17 17 17 17 16 16 16 16 16 16 16 16 16 16 17 17 16 16 17 17 17 17 17 16 17 17 16 16 16 16 16 16 16 16 16 16 16
17 17 17 17 17 17 17 16 16 16 16 16 16 16 16 16 16 16 16 16 16 16 16 16 16 16 16 16 16 16 16 16 16 16 16 16 16 16 16 16 16 16 16
17 17 17 17 17 17 16 16 16 16 16 16 16 16 16 16 15 15 15 15 15 16 16 16 16 16 16 16 16 16 16 16 16 16 16 16 16 16 16 16 16 16 16
17 17 17 16 16 16 16 16 16 16 16 16 15 15 15 15 15 15 15 15 15 15 15 15 16 16 16 16 16 16 16 16 16 16 16 16 16 16 16 16 16 16 15
17 16 16 16 16 16 16 16 16 16 16 15 15 15 15 15 15 15 15 15 14 14 14 15 15 15 15 15 15 15 15 16 16 16 16 16 16 16 16 16 15 15 15
16 16 16 16 16 16 16 15 15 15 15 15 15 15 15 15 15 15 14 14 14 14 14 14 14 14 14 15 15 15 15 15 15 15 15 15 15 16 15 16 16 15 15
16 16 16 16 16 16 15 15 15 15 15 15 15 15 14 14 14 14 14 14 14 14 13 14 14 14 14 14 14 14 14 15 15 15 15 15 15 15 15 15 15 15 15
16 16 16 16 16 15 15 15 15 15 15 15 14 14 14 14 14 14 14 14 14 13 13 13 14 14 14 14 14 14 14 14 14 14 15 15 15 15 15 15 15 15 15
16 16 15 15 15 15 15 15 15 14 14 14 14 14 14 14 14 14 14 13 13 13 13 13 13 13 13 13 13 13 14 14 14 14 14 14 15 15 15 15 15 15 15
15 15 15 15 15 15 15 14 14 14 14 14 14 13 13 13 13 13 13 13 13 13 13 13 13 13 13 13 13 13 13 14 14 14 14 14 14 14 14 14 14 14 14
15 15 15 15 14 14 14 14 14 14 14 13 13 13 13 13 13 13 13 13 13 12 12 12 12 12 12 13 13 13 13 13 13 14 14 14 14 14 14 14 14 14 14
15 14 14 14 14 14 14 14 14 13 13 13 13 13 13 13 13 13 13 12 12 12 12 12 12 12 12 12 12 12 12 12 13 13 13 13 13 13 14 14 14 14 14
15 14 14 14 14 14 13 13 13 13 13 13 13 13 13 13 13 13 13 12 12 12 12 12 12 12 12 12 12 12 12 12 12 12 12 13 13 13 13 13 13 14 14
14 14 14 14 14 13 13 13 13 13 13 13 13 13 13 12 12 12 12 12 12 12 12 12 12 12 12 12 12 12 12 12 12 12 12 12 13 13 13 13 13 13 13
14 14 14 13 13 13 13 13 13 13 12 12 12 12 12 12 12 12 12 12 12 12 12 12 11 11 11 11 11 11 11 11 11 12 12 12 12 12 12 13 13 13 13
14 13 13 13 13 13 13 13 12 12 12 12 12 12 12 12 12 12 12 12 12 12 12 12 11 11 11 11 11 11 11 11 11 11 11 11 11 11 11 12 12 12 12
Wind_Speed
1 1 2 2 2 2 2 1 1 1 1 0 1 1 2 2 2 3 4 6 8 8 8 9 10 11 11 11 11 11 11 11 12 12 13 14 14 14 13 13 13 13 13
1 1 2 2 2 2 1 1 1 1 0 0 0 1 1 1 2 3 3 5 6 7 7 8 9 10 11 11 11 11 12 12 12 12 12 12 13 13 14 13 13 13 13
1 1 1 1 1 2 1 1 1 1 1 1 1 1 0 1 1 2 2 3 4 6 7 7 8 9 11 12 12 12 12 13 13 12 13 13 13 13 14 14 14 13 13
1 1 1 1 1 1 1 1 1 1 1 1 1 1 1 0 0 1 1 2 2 2 4 6 7 8 10 11 12 12 11 12 12 12 12 13 13 13 13 14 14 14 14
1 1 1 1 1 1 1 1 1 0 0 1 0 1 1 1 0 0 1 1 2 2 2 4 6 7 8 10 11 11 11 11 12 12 12 13 13 13 14 14 14 14 14
1 1 0 1 1 1 1 1 1 1 0 0 0 1 1 1 0 0 1 1 2 2 2 3 3 4 5 7 9 10 11 11 12 12 12 13 13 13 14 14 14 14 14
1 1 1 1 1 1 1 1 1 1 2 1 1 2 1 1 0 0 0 0 1 2 2 2 3 3 3 5 7 9 11 11 12 12 13 13 13 14 14 14 14 14 14
2 1 1 1 1 1 2 2 1 1 1 2 1 1 2 2 1 1 0 0 1 1 1 2 2 3 3 3 5 8 9 10 11 12 13 13 14 15 15 14 14 14 14
2 1 1 1 1 1 1 1 1 1 1 1 1 1 1 1 2 1 1 1 1 1 1 2 2 3 3 4 5 6 7 8 10 12 13 13 14 15 15 15 14 14 14
2 2 2 2 2 2 1 1 2 1 1 1 1 1 0 1 0 2 2 1 1 1 1 1 2 3 3 4 5 5 5 7 8 11 12 12 12 13 14 15 15 15 15
2 2 2 1 1 1 1 1 2 2 1 1 0 0 0 1 1 1 2 3 2 2 2 2 1 2 3 4 4 5 5 5 6 8 9 10 11 12 13 15 16 16 16
1 1 1 1 1 1 1 0 1 2 1 1 1 1 1 1 1 1 2 2 2 2 2 1 1 2 3 3 5 5 5 5 6 6 7 9 10 12 13 14 15 16 16
1 1 0 0 0 0 1 1 1 1 1 1 1 1 1 0 0 1 1 1 2 2 2 1 2 2 3 3 4 5 5 5 5 6 7 8 9 10 12 13 14 15 16
1 1 0 0 0 0 1 1 1 1 1 1 1 0 0 0 0 1 1 1 1 2 2 3 2 2 3 3 4 5 4 5 6 6 7 8 9 9 10 11 12 13 14
1 0 0 0 0 0 1 1 1 1 1 1 0 0 0 1 1 1 1 1 2 2 3 3 2 3 3 3 4 3 4 5 6 7 8 8 8 10 11 11 11 12 13
1 1 1 1 1 0 0 1 0 0 1 0 0 0 1 1 1 1 1 1 2 3 3 2 3 4 4 4 4 4 5 6 7 7 8 8 8 9 10 10 10 12 13
1 0 0 0 0 1 0 0 1 0 0 1 1 1 2 2 1 1 1 1 1 2 4 3 3 3 3 4 4 4 4 4 5 8 9 9 9 10 10 10 10 11 12
1 1 1 0 1 1 1 1 1 1 1 1 2 1 3 2 2 2 1 2 2 3 3 4 3 3 4 4 4 4 4 4 5 7 8 9 9 10 10 10 10 11 11
1 1 1 1 1 1 1 1 1 1 1 2 2 2 3 2 3 2 2 2 2 2 3 3 4 3 3 3 4 4 4 4 5 6 7 7 9 10 10 10 10 10 11
1 1 1 2 2 1 1 1 1 1 2 2 3 3 3 3 4 4 3 4 3 3 2 3 4 4 3 3 3 4 4 4 4 5 5 6 7 8 9 10 10 10 10
1 1 1 2 2 1 1 1 1 2 2 3 3 4 4 4 4 3 3 3 3 3 3 3 4 3 4 3 3 3 5 5 5 4 4 4 4 4 5 7 9 10 10
1 1 1 1 2 2 2 1 1 1 2 2 3 4 4 4 4 4 5 5 4 4 4 4 4 5 5 5 4 4 4 4 4 2 3 4 3 4 4 5 7 8 9
1 1 2 2 2 3 3 3 2 1 1 2 3 3 4 4 4 4 5 5 5 6 6 5 6 7 6 5 4 5 5 5 5 4 3 5 4 5 5 5 6 7 8
1 1 2 2 2 3 3 3 2 1 2 3 3 3 3 4 4 4 4 4 5 5 6 6 6 7 7 6 5 5 6 6 5 4 3 4 4 4 5 4 6 7 7
1 1 1 1 2 3 4 3 2 1 2 3 3 3 3 4 6 4 3 5 6 6 6 7 7 7 8 7 5 3 3 3 5 4 3 3 3 3 4 4 4 4 6
0 1 2 1 1 2 3 2 2 1 2 3 4 4 4 4 6 5 3 4 6 7 6 5 4 5 5 5 5 5 4 4 4 4 2 3 3 2 3 2 2 2 2
Wind_Direction
30 33 45 36 29 35 52 52 61 65 36 329 202 187 194 199 208 213 224 218 216 215 216 216 213 211 212 212 212 213 211 208 206 203 205 207 205 205 204 203 201 200 201
85 65 47 36 24 27 44 88 94 97 46 11 332 275 228 213 220 224 221 222 224 219 221 223 221 216 214 214 213 216 215 211 208 205 207 208 209 208 206 205 204 204 204
112 100 74 31 359 13 31 64 65 75 72 31 351 329 301 226 211 220 216 212 224 229 226 229 228 225 221 218 214 215 216 214 210 207 210 211 212 210 208 206 206 206 205
90 101 81 9 347 24 51 66 59 59 26 28 17 354 2 26 161 198 193 203 220 231 238 243 240 234 228 223 219 218 218 216 212 212 214 215 215 212 209 208 207 207 208
98 115 86 348 3 51 54 59 55 73 23 355 4 21 15 22 50 187 183 215 230 234 241 256 256 248 232 228 224 218 218 216 213 214 219 221 219 213 209 209 208 207 206
58 99 97 15 46 56 43 43 52 42 59 319 30 46 25 10 21 122 223 238 242 234 238 252 260 262 250 240 232 227 226 221 216 217 222 223 219 214 210 210 209 207 205
27 76 49 46 63 80 43 55 76 50 31 29 49 18 6 22 283 275 249 252 267 249 245 252 256 256 262 252 236 232 232 230 223 219 220 220 218 214 211 210 210 211 211
37 57 66 65 69 78 50 41 66 67 37 52 85 67 358 351 345 342 322 335 320 272 249 245 244 251 256 257 247 238 233 232 232 228 225 222 219 214 209 208 211 213 214
49 49 64 86 85 99 82 39 58 94 80 30 62 117 131 265 318 332 356 2 336 296 274 256 252 259 255 256 256 246 243 242 238 236 231 227 220 212 208 211 214 216 216
37 50 61 73 73 85 88 59 69 71 98 53 7 37 152 174 190 319 329 327 292 262 278 275 267 261 259 257 257 255 251 251 248 243 239 233 225 216 212 214 217 218 216
31 56 78 81 77 79 72 61 70 77 95 113 104 92 75 48 79 204 296 320 317 286 282 269 269 259 260 260 258 264 263 256 252 246 240 238 230 225 223 221 220 220 219
358 13 83 80 85 92 80 66 85 91 92 95 92 87 103 112 207 198 246 290 305 307 294 273 279 270 261 266 265 276 269 267 260 255 243 239 237 233 230 226 224 224 223
314 314 341 109 270 196 111 93 92 83 88 98 117 139 134 182 187 176 201 267 292 305 315 293 290 287 287 281 275 280 271 268 262 258 254 247 243 243 238 232 228 227 227
262 274 227 231 252 139 110 104 101 109 86 89 76 106 135 290 229 180 181 187 302 311 311 295 305 308 315 302 296 288 280 277 264 257 254 254 247 242 241 238 233 231 232
259 326 188 183 325 60 116 128 123 155 130 134 175 173 294 298 288 253 220 191 190 273 294 297 305 315 314 297 302 297 286 284 271 262 257 252 248 241 238 234 233 234 233
336 14 22 28 9 1 188 153 174 242 137 229 226 117 298 298 299 275 247 230 205 210 253 281 280 301 309 315 309 292 281 287 275 265 256 252 251 245 241 237 235 236 234
308 316 315 6 340 320 301 182 232 217 195 301 307 294 286 283 287 288 266 240 230 213 245 282 285 296 293 302 311 302 293 286 286 274 261 255 254 249 242 238 238 239 240
287 275 270 253 257 275 270 248 254 253 226 260 274 280 289 287 282 278 262 262 253 234 235 274 300 299 284 290 294 294 298 291 282 281 268 256 253 250 243 241 239 238 238
321 312 286 261 262 263 248 240 230 242 244 264 270 261 271 275 280 276 261 260 260 261 241 261 290 300 293 303 302 299 295 293 291 285 274 262 258 254 249 245 240 237 238
323 316 311 284 267 256 240 239 231 246 261 269 271 265 263 259 261 264 264 259 255 258 257 266 284 294 292 300 298 297 302 297 292 289 282 271 262 256 253 248 241 240 241
342 316 322 312 296 262 246 243 240 251 267 281 285 278 270 271 270 265 269 258 249 254 261 268 278 288 292 299 291 285 291 298 287 269 281 275 265 259 259 252 245 243 242
345 359 355 341 333 323 329 320 263 261 265 275 289 293 287 288 292 284 279 272 254 249 251 254 266 270 274 273 276 277 284 299 298 289 277 277 256 255 259 254 246 239 238
4 358 345 359 347 337 348 354 1 326 306 296 290 294 298 301 296 286 286 284 276 263 247 244 257 261 264 263 262 269 265 266 270 287 280 276 262 262 266 259 247 240 234
352 348 341 344 343 339 352 355 359 0 327 313 305 295 294 300 304 304 294 294 287 278 262 251 252 259 262 258 243 251 262 268 273 275 251 270 280 275 274 267 249 241 229
1 353 340 333 337 329 345 357 18 3 328 314 309 308 298 298 306 314 305 297 298 296 283 271 266 273 278 272 251 247 262 272 282 280 241 253 278 286 282 270 267 247 222
5 343 343 332 310 312 337 4 24 15 329 320 320 316 306 299 306 311 298 290 289 290 297 301 295 296 292 283 255 235 240 251 269 274 244 241 271 286 289 283 280 284 245
Height
1513 1513 1513 1513 1513 1513 1513 1513 1514 1514 1514 1514 1514 1515 1515 1515 1515 1516 1517 1518 1519 1520 1521 1522 1523 1524 1525 1527 1528 1530 1532 1533 1535 1537 1539 1540 1542 1544 1546 1548 1550 1551 1553
1514 1514 1514 1513 1513 1513 1514 1513 1514 1514 1514 1513 1514 1514 1514 1514 1514 1515 1515 1516 1517 1518 1519 1519 1521 1522 1523 1525 1526 1528 1529 1531 1533 1535 1536 1538 1540 1542 1543 1545 1547 1548 1550
1514 1514 1514 1514 1513 1513 1513 1513 1513 1513 1513 1513 1513 1513 1513 1513 1513 1513 1514 1514 1515 1516 1517 1518 1519 1520 1521 1522 1524 1525 1527 1528 1530 1532 1534 1536 1537 1539 1541 1542 1544 1545 1547
1515 1515 1514 1514 1514 1513 1513 1513 1513 1513 1513 1512 1512 1513 1513 1513 1513 1513 1513 1514 1515 1515 1516 1517 1517 1518 1519 1520 1521 1523 1524 1525 1527 1529 1531 1533 1534 1536 1537 1539 1541 1542 1544
1515 1515 1514 1514 1514 1513 1513 1513 1512 1512 1512 1512 1512 1512 1512 1512 1512 1513 1513 1513 1514 1514 1515 1515 1516 1516 1517 1518 1519 1520 1522 1523 1524 1526 1528 1530 1531 1533 1534 1536 1538 1539 1541
1515 1514 1514 1514 1514 1513 1513 1512 1512 1512 1511 1511 1511 1511 1511 1511 1511 1512 1512 1512 1513 1513 1513 1514 1514 1515 1515 1516 1517 1518 1519 1520 1521 1523 1525 1526 1528 1529 1531 1533 1534 1536 1538
1514 1514 1514 1514 1513 1513 1513 1512 1512 1511 1511 1510 1510 1510 1510 1510 1510 1511 1511 1511 1512 1512 1512 1513 1513 1513 1514 1514 1515 1516 1517 1518 1519 1520 1521 1522 1523 1525 1527 1529 1531 1533 1535
1514 1514 1513 1513 1513 1513 1512 1512 1511 1511 1510 1510 1510 1509 1509 1510 1510 1510 1510 1510 1511 1511 1511 1511 1511 1512 1512 1513 1513 1514 1515 1515 1516 1517 1517 1518 1518 1520 1522 1525 1527 1529 1531
1514 1513 1513 1513 1512 1512 1512 1511 1511 1510 1510 1510 1510 1510 1509 1509 1509 1509 1509 1509 1509 1510 1510 1510 1510 1510 1510 1511 1511 1512 1512 1512 1513 1513 1514 1514 1514 1515 1517 1520 1523 1524 1526
1513 1513 1512 1512 1512 1511 1511 1511 1510 1510 1510 1509 1509 1509 1510 1509 1509 1508 1509 1508 1508 1508 1508 1508 1508 1508 1509 1509 1509 1509 1509 1509 1510 1510 1510 1511 1511 1512 1514 1516 1518 1520 1522
1513 1512 1512 1511 1511 1510 1510 1510 1509 1509 1509 1509 1509 1508 1508 1508 1508 1508 1507 1507 1507 1507 1507 1507 1507 1507 1507 1507 1507 1507 1507 1506 1507 1507 1507 1508 1508 1509 1511 1513 1514 1516 1517
1512 1511 1511 1510 1510 1509 1509 1509 1508 1508 1508 1508 1508 1508 1508 1507 1507 1507 1506 1505 1505 1505 1505 1505 1505 1505 1505 1505 1505 1505 1504 1504 1504 1504 1504 1504 1505 1506 1508 1509 1510 1511 1513
1511 1510 1510 1510 1509 1508 1508 1508 1507 1507 1507 1507 1507 1506 1506 1506 1506 1506 1505 1504 1503 1503 1503 1503 1503 1503 1502 1502 1502 1502 1502 1502 1501 1501 1501 1502 1502 1503 1504 1505 1506 1507 1508
1510 1510 1509 1509 1508 1507 1507 1507 1506 1506 1506 1505 1505 1505 1505 1505 1505 1504 1504 1503 1502 1501 1501 1500 1500 1500 1500 1499 1499 1499 1499 1499 1499 1498 1498 1499 1499 1499 1500 1500 1501 1503 1504
1509 1508 1508 1507 1507 1506 1506 1506 1505 1504 1504 1504 1504 1504 1503 1503 1503 1502 1502 1502 1502 1500 1498 1498 1498 1497 1497 1497 1496 1496 1496 1496 1495 1495 1495 1495 1495 1496 1496 1496 1497 1498 1499
1508 1507 1506 1506 1505 1505 1504 1504 1504 1504 1503 1503 1502 1502 1501 1501 1501 1500 1500 1500 1499 1498 1497 1496 1495 1495 1494 1494 1493 1493 1493 1492 1492 1492 1491 1491 1491 1491 1492 1492 1492 1493 1494
1506 1505 1505 1504 1503 1502 1502 1502 1502 1502 1502 1501 1501 1500 1499 1499 1498 1498 1497 1497 1497 1496 1494 1493 1493 1492 1492 1491 1490 1490 1489 1489 1488 1488 1487 1487 1487 1487 1487 1488 1488 1488 1489
1504 1503 1503 1502 1501 1501 1500 1500 1500 1500 1499 1499 1498 1498 1497 1497 1496 1496 1495 1494 1494 1493 1492 1490 1489 1489 1489 1488 1487 1486 1486 1485 1485 1484 1484 1483 1483 1483 1483 1483 1483 1484 1485
1502 1502 1501 1500 1499 1499 1498 1498 1497 1497 1496 1496 1496 1495 1495 1494 1493 1493 1492 1491 1491 1490 1489 1488 1486 1486 1485 1485 1484 1483 1482 1481 1481 1480 1480 1480 1480 1479 1479 1479 1479 1480 1480
1500 1500 1499 1498 1497 1497 1496 1495 1495 1495 1494 1494 1493 1493 1492 1491 1491 1490 1489 1488 1488 1487 1486 1484 1483 1482 1482 1481 1480 1479 1478 1477 1477 1476 1475 1476 1475 1475 1475 1475 1476 1476 1476
1498 1498 1497 1496 1496 1495 1494 1494 1493 1492 1491 1491 1490 1490 1489 1488 1488 1487 1486 1485 1484 1483 1482 1481 1480 1479 1478 1477 1477 1476 1475 1473 1473 1472 1471 1471 1471 1471 1471 1471 1471 1471 1472
1497 1496 1495 1495 1494 1493 1492 1492 1491 1490 1489 1488 1487 1487 1486 1486 1485 1484 1483 1482 1482 1480 1478 1477 1476 1475 1474 1474 1473 1472 1471 1470 1468 1469 1468 1467 1467 1466 1466 1467 1467 1467 1468
1495 1494 1494 1493 1492 1491 1491 1490 1489 1488 1487 1485 1484 1484 1483 1482 1481 1481 1480 1479 1478 1476 1475 1474 1472 1471 1470 1470 1470 1469 1468 1467 1466 1465 1464 1462 1463 1462 1462 1462 1462 1462 1463
1493 1492 1491 1491 1490 1489 1489 1488 1487 1486 1485 1483 1482 1481 1480 1479 1478 1477 1476 1475 1473 1472 1471 1470 1468 1467 1467 1466 1466 1465 1464 1463 1462 1462 1461 1459 1458 1458 1458 1457 1457 1458 1459
1491 1490 1490 1489 1488 1488 1487 1486 1485 1484 1483 1481 1480 1479 1477 1476 1475 1474 1472 1471 1469 1468 1467 1466 1465 1464 1463 1462 1461 1461 1460 1459 1457 1457 1457 1456 1454 1453 1453 1452 1453 1454 1455
1489 1489 1488 1487 1487 1486 1485 1484 1483 1482 1480 1479 1478 1477 1475 1473 1472 1470 1469 1467 1465 1464 1463 1462 1461 1460 1459 1458 1457 1456 1456 1455 1454 1453 1453 1452 1451 1450 1449 1448 1449 1449 1450